User: anonymous   Login
Location: Waldport
(44.4270°N, 124.0680°W)
Time: 13:38:06
(UTC-07:00)
Language:

Cosmos 1023 Rocket - Orbit

View from above orbital plane
View from above orbital plane
View from above satellite
View from above satellite

Ground track
Ground track

The orbit data is extracted from the following two-line orbital elements,

1 10962U 78063B   16270.20626459  .00000056  00000-0  25409-4 0  9997
2 10962  74.0817 346.2303 0026164 315.2676  44.6369 14.41046503  7846
Epoch (UTC): 26 September 2016 04:57:01
Eccentricity: 0.0026164
inclination: 74.0817°
perigee height: 736 km
apogee height: 774 km
right ascension of ascending node: 346.2303°
argument of perigee: 315.2676°
revolutions per day: 14.41046503
mean anomaly at epoch: 44.6369°
orbit number at epoch: 784

The dashed part of the orbit path shows where the satellite is in the earth's shadow,  

DLR